TimePST,TemperatureF,Dew PointF,Humidity,Sea Level PressureIn,VisibilityMPH,Wind Direction,Wind SpeedMPH,Gust SpeedMPH,PrecipitationIn,Events,Conditions,WindDirDegrees,DateUTC
12:15 AM,39.2,37.4,93,30.09,10.0,Calm,Calm,-,N/A,,Overcast,0,2014-02-19 08:15:00
12:35 AM,42.8,37.4,81,30.10,7.0,WSW,6.9,16.1,N/A,Rain,Light Rain,250,2014-02-19 08:35:00
12:55 AM,42.8,37.4,81,30.10,7.0,SW,8.1,-,0.01,,Overcast,220,2014-02-19 08:55:00
1:15 AM,41.0,37.4,87,30.09,7.0,South,4.6,-,N/A,,Mostly Cloudy,170,2014-02-19 09:15:00
1:35 AM,42.8,37.4,81,30.11,5.0,WSW,16.1,28.8,0.02,Rain,Heavy Rain,240,2014-02-19 09:35:00
1:55 AM,42.8,39.2,87,30.12,7.0,SW,16.1,24.2,0.03,,Light Drizzle,230,2014-02-19 09:55:00
2:15 AM,42.8,39.2,87,30.13,7.0,SW,12.7,17.3,N/A,,Light Drizzle,220,2014-02-19 10:15:00
2:35 AM,42.8,41.0,93,30.14,7.0,SW,10.4,-,N/A,,Overcast,230,2014-02-19 10:35:00
2:55 AM,44.6,41.0,87,30.14,7.0,WSW,11.5,-,N/A,,Overcast,250,2014-02-19 10:55:00
3:15 AM,44.6,37.4,76,-9999,7.0,NW,10.4,16.1,N/A,,Light Drizzle,310,2014-02-19 11:15:00
3:35 AM,42.8,37.4,81,30.14,7.0,West,16.1,21.9,N/A,,Mostly Cloudy,260,2014-02-19 11:35:00
3:55 AM,42.8,37.4,81,30.15,10.0,WSW,11.5,20.7,N/A,,Mostly Cloudy,250,2014-02-19 11:55:00
4:15 AM,42.8,37.4,81,30.15,10.0,WSW,10.4,17.3,N/A,,Scattered Clouds,250,2014-02-19 12:15:00
4:35 AM,44.6,39.2,81,30.16,7.0,West,9.2,-,N/A,,Mostly Cloudy,270,2014-02-19 12:35:00
4:55 AM,44.6,39.2,81,30.16,7.0,West,10.4,-,N/A,,Scattered Clouds,280,2014-02-19 12:55:00
5:15 AM,44.6,37.4,76,-9999,7.0,WNW,9.2,-,N/A,,Mostly Cloudy,290,2014-02-19 13:15:00
5:35 AM,44.6,41.0,87,30.17,7.0,West,11.5,16.1,N/A,,Mostly Cloudy,260,2014-02-19 13:35:00
5:55 AM,42.8,37.4,81,30.17,7.0,West,8.1,-,0.01,,Mostly Cloudy,280,2014-02-19 13:55:00
6:15 AM,44.6,37.4,76,30.18,7.0,West,12.7,-,N/A,,Mostly Cloudy,260,2014-02-19 14:15:00
6:35 AM,44.6,39.2,81,30.19,7.0,NW,13.8,19.6,N/A,,Overcast,310,2014-02-19 14:35:00
6:55 AM,42.8,37.4,81,30.20,7.0,NW,9.2,-,N/A,,Overcast,320,2014-02-19 14:55:00
7:15 AM,42.8,37.4,81,30.21,7.0,West,11.5,-,N/A,,Overcast,280,2014-02-19 15:15:00
7:35 AM,44.6,37.4,76,30.22,7.0,West,10.4,19.6,N/A,,Overcast,280,2014-02-19 15:35:00
7:55 AM,44.6,37.4,76,30.22,7.0,West,10.4,-,N/A,,Mostly Cloudy,280,2014-02-19 15:55:00
8:15 AM,44.6,37.4,76,30.23,7.0,West,11.5,17.3,N/A,,Scattered Clouds,280,2014-02-19 16:15:00
8:35 AM,46.4,37.4,71,30.24,7.0,West,6.9,-,N/A,,Mostly Cloudy,270,2014-02-19 16:35:00
8:55 AM,44.6,37.4,76,30.24,7.0,West,6.9,-,N/A,,Mostly Cloudy,280,2014-02-19 16:55:00
9:15 AM,46.4,35.6,66,30.25,10.0,WNW,8.1,-,N/A,,Mostly Cloudy,290,2014-02-19 17:15:00
9:35 AM,46.4,37.4,71,30.26,7.0,West,8.1,-,N/A,,Scattered Clouds,270,2014-02-19 17:35:00
9:55 AM,46.4,37.4,71,30.27,7.0,West,6.9,-,N/A,,Overcast,260,2014-02-19 17:55:00
10:15 AM,46.4,37.4,71,30.27,10.0,WSW,6.9,-,N/A,,Mostly Cloudy,240,2014-02-19 18:15:00
10:35 AM,48.2,37.4,66,30.27,7.0,WSW,9.2,-,N/A,,Scattered Clouds,240,2014-02-19 18:35:00
10:55 AM,50.0,39.2,66,30.28,7.0,WSW,9.2,-,N/A,,Mostly Cloudy,240,2014-02-19 18:55:00
11:15 AM,48.2,37.4,66,30.29,7.0,WSW,11.5,17.3,N/A,,Mostly Cloudy,240,2014-02-19 19:15:00
11:35 AM,46.4,37.4,71,30.29,7.0,WSW,9.2,-,N/A,Rain,Light Rain,240,2014-02-19 19:35:00
11:55 AM,48.2,37.4,66,30.29,7.0,WSW,10.4,-,N/A,,Mostly Cloudy,240,2014-02-19 19:55:00
12:15 PM,44.6,39.2,81,30.29,5.0,SW,13.8,23.0,N/A,Rain,Light Rain,220,2014-02-19 20:15:00
12:35 PM,46.4,39.2,76,30.29,7.0,SW,8.1,-,N/A,,Mostly Cloudy,220,2014-02-19 20:35:00
12:55 PM,50.0,41.0,71,30.29,7.0,SW,15.0,19.6,N/A,,Mostly Cloudy,220,2014-02-19 20:55:00
1:15 PM,48.2,41.0,76,30.29,7.0,SW,15.0,-,N/A,,Mostly Cloudy,220,2014-02-19 21:15:00
1:35 PM,48.2,41.0,76,30.29,5.0,SW,15.0,18.4,N/A,,Haze,230,2014-02-19 21:35:00
1:55 PM,46.4,41.0,81,30.29,7.0,WSW,16.1,24.2,N/A,Rain,Rain,240,2014-02-19 21:55:00
2:15 PM,42.8,39.2,87,30.30,5.0,WSW,5.8,-,0.02,Rain,Light Rain,240,2014-02-19 22:15:00
2:35 PM,44.6,41.0,87,30.29,7.0,SSW,9.2,-,0.02,,Mostly Cloudy,210,2014-02-19 22:35:00
2:55 PM,44.6,41.0,87,30.28,5.0,SW,8.1,-,0.02,,Overcast,220,2014-02-19 22:55:00
3:15 PM,42.8,39.2,87,30.29,2.5,WSW,8.1,18.4,0.05,Rain,Rain,240,2014-02-19 23:15:00
3:35 PM,44.6,42.8,93,30.29,5.0,SSW,11.5,16.1,0.05,,Overcast,210,2014-02-19 23:35:00
3:55 PM,46.4,41.0,81,30.29,5.0,South,8.1,-,0.05,,Haze,190,2014-02-19 23:55:00
4:15 PM,46.4,42.8,87,30.28,4.0,SW,8.1,-,N/A,,Overcast,230,2014-02-20 00:15:00
4:35 PM,44.6,41.0,87,30.28,7.0,WSW,11.5,16.1,N/A,,Light Drizzle,240,2014-02-20 00:35:00
4:55 PM,44.6,41.0,87,30.28,7.0,WSW,10.4,-,N/A,,Light Drizzle,240,2014-02-20 00:55:00
5:15 PM,44.6,39.2,81,30.28,5.0,SW,8.1,-,N/A,,Light Drizzle,230,2014-02-20 01:15:00
5:35 PM,44.6,41.0,87,30.28,5.0,SW,9.2,-,N/A,,Light Drizzle,230,2014-02-20 01:35:00
5:55 PM,44.6,41.0,87,30.28,5.0,SW,10.4,-,N/A,,Haze,220,2014-02-20 01:55:00
6:15 PM,44.6,41.0,87,30.29,7.0,SSW,6.9,-,N/A,,Overcast,210,2014-02-20 02:15:00
6:35 PM,44.6,41.0,87,30.29,7.0,SSW,9.2,-,N/A,,Overcast,210,2014-02-20 02:35:00
6:55 PM,44.6,41.0,87,30.29,7.0,SSW,9.2,-,N/A,,Overcast,200,2014-02-20 02:55:00
7:15 PM,44.6,41.0,87,30.29,7.0,South,8.1,-,N/A,,Overcast,190,2014-02-20 03:15:00
7:35 PM,44.6,41.0,87,30.29,7.0,South,6.9,-,N/A,,Overcast,180,2014-02-20 03:35:00
7:55 PM,44.6,41.0,87,30.29,7.0,South,6.9,-,N/A,,Overcast,180,2014-02-20 03:55:00
8:35 PM,46.4,42.8,87,30.29,7.0,SSW,13.8,-,N/A,,Drizzle,210,2014-02-20 04:35:00
8:55 PM,44.6,42.8,93,30.29,7.0,SSW,13.8,-,N/A,,Drizzle,210,2014-02-20 04:55:00
9:15 PM,46.4,42.8,87,30.29,5.0,SW,15.0,20.7,0.01,,Drizzle,220,2014-02-20 05:15:00
9:35 PM,46.4,42.8,87,30.29,7.0,SW,15.0,20.7,0.01,,Drizzle,220,2014-02-20 05:35:00
9:55 PM,46.4,44.6,93,30.29,7.0,SW,18.4,24.2,0.01,,Drizzle,220,2014-02-20 05:55:00
10:15 PM,46.4,42.8,87,30.29,7.0,SW,16.1,24.2,N/A,,Light Drizzle,220,2014-02-20 06:15:00
10:35 PM,46.4,42.8,87,30.29,7.0,SSW,15.0,25.3,N/A,,Light Drizzle,210,2014-02-20 06:35:00
10:55 PM,46.4,44.6,93,30.28,7.0,SW,18.4,21.9,N/A,,Overcast,220,2014-02-20 06:55:00
11:15 PM,46.4,44.6,93,30.28,5.0,SW,18.4,26.5,N/A,Rain,Rain,220,2014-02-20 07:15:00
11:35 PM,46.4,42.8,87,30.27,7.0,SW,19.6,-,N/A,,Light Drizzle,220,2014-02-20 07:35:00
11:55 PM,46.4,42.8,87,30.28,4.0,SW,13.8,24.2,0.01,Rain,Rain,230,2014-02-20 07:55:00